This demonstration page uses our WeatherBlox Daily Observations layout. Learn more.

41.55636, -103.73856

Hourly Observations for April 12, 2019

Temp ( °F °C ) Dew Point ( °F °C ) Humidity (%) Winds ( mph kmh ) Pressure ( in mb ) Visibility ( mi km ) Precip ( " mm )
12:53 am 00:53 Cloudy 25 -3.9 18 -7.8 75 75 WNW 17 28 29.85 1011 10 16.09344 0 0
1:53 am 01:53 Mostly Clear 24 -4.4 16 -8.9 71 71 WNW 15 24 29.85 1011 10 16.09344 0 0
2:53 am 02:53 Clear 23 -5 17 -8.3 78 78 NW 13 20 29.85 1011 10 16.09344 0 0
3:53 am 03:53 Clear 22 -5.6 17 -8.3 82 82 WNW 12 19 29.85 1011 10 16.09344 0 0
4:53 am 04:53 Clear 21 -6.1 16 -8.9 81 81 WNW 10 17 29.88 1012 10 16.09344 0 0
5:53 am 05:53 Clear 19 -7.2 15 -9.4 84 84 NW 8 13 29.91 1013 10 16.09344 0 0
6:53 am 06:53 Cloudy 23 -5 16 -8.9 74 74 NW 12 19 29.91 1013 10 16.09344 0 0
7:53 am 07:53 Mostly Cloudy 27 -2.8 19 -7.2 72 72 WNW 10 17 29.91 1013 10 16.09344 0 0
8:53 am 08:53 Mostly Sunny 29 -1.7 19 -7.2 66 66 WNW 16 26 29.94 1014 10 16.09344 0 0
9:53 am 09:53 Cloudy 31 -0.6 19 -7.2 61 61 WNW 16 26 29.94 1014 10 16.09344 0 0
10:53 am 10:53 Sunny 32 0 20 -6.7 61 61 WNW 15 24 29.94 1014 10 16.09344 0 0
11:53 am 11:53 Mostly Sunny 34 1.1 20 -6.7 56 56 NW 17 28 29.94 1014 10 16.09344 0 0
12:53 pm 12:53 Mostly Cloudy 37 2.8 22 -5.6 54 54 WNW 17 28 29.91 1013 10 16.09344 0 0
1:53 pm 13:53 Partly Cloudy 39 3.9 21 -6.1 48 48 NW 21 33 29.91 1013 10 16.09344 0 0
2:53 pm 14:53 Mostly Sunny 41 5 22 -5.6 47 47 NW 17 28 29.91 1013 10 16.09344 0 0
3:53 pm 15:53 Mostly Sunny 41 5 22 -5.6 47 47 NNW 15 24 29.94 1014 10 16.09344 0 0
4:53 pm 16:53 Sunny 40 4.4 20 -6.7 45 45 NNW 16 26 29.94 1014 10 16.09344 0 0
5:53 pm 17:53 Sunny 39 3.9 19 -7.2 45 45 N 16 26 30 1016 10 16.09344 0 0
6:53 pm 18:53 Sunny 37 2.8 18 -7.8 46 46 NNW 14 22 30 1016 10 16.09344 0 0
7:53 pm 19:53 Clear 32 0 20 -6.7 61 61 N 7 11 30.03 1017 10 16.09344 0 0
8:53 pm 20:53 Clear 31 -0.6 20 -6.7 64 64 NNW 6 9 30.06 1018 10 16.09344 0 0
9:53 pm 21:53 Clear 30 -1.1 20 -6.7 66 66 NW 3 6 30.09 1019 10 16.09344 0 0
10:53 pm 22:53 Clear 27 -2.8 20 -6.7 75 75 WNW 3 6 30.09 1019 10 16.09344 0 0
11:53 pm 23:53 Clear 26 -3.3 18 -7.8 71 71 NW 5 7 30.09 1019 10 16.09344 0 0

Powered by AerisWeather